When you browse on this site, cookies collect data to enhance your experience and personalize the content and advertising you see.
Visit our Privacy Policy to learn more. By continuing to use the site, you agree to this use of cookies and data.
  • In Czech Republic
  • List of Countries
  • For 7 days
  • Water Temperature
  • Weather Map
  • Weather Widgets
  • user-avatar
    Login

    Hourly Weather Liberec

    Today, 6 April, Monday

    Time Temperature Precipitation Wind Pressure Humidity
    00:00 +4°C° 0 mm 3 mps 731 mmHg 66%
    01:00 +4°C° 0 mm 3 mps 731 mmHg 64%
    02:00 +4°C° 0 mm 3 mps 731 mmHg 66%
    03:00 +4°C° 0 mm 4 mps 731 mmHg 67%
    04:00 +4°C° 0 mm 4 mps 731 mmHg 69%
    05:00 +5°C° 0 mm 4 mps 731 mmHg 68%
    06:00 +5°C° 0 mm 4 mps 731 mmHg 68%
    07:00 +6°C° 0 mm 4 mps 731 mmHg 68%
    08:00 +7°C° 0 mm 5 mps 732 mmHg 63%
    09:00 +9°C° 0 mm 6 mps 732 mmHg 58%
    10:00 +11°C° 0 mm 7 mps 732 mmHg 54%
    11:00 +12°C° 0 mm 7 mps 732 mmHg 51%
    12:00 +14°C° 0 mm 7 mps 732 mmHg 48%
    13:00 +15°C° 0 mm 7 mps 732 mmHg 46%
    14:00 +15°C° 0 mm 7 mps 732 mmHg 48%
    15:00 +15°C° 0 mm 6 mps 732 mmHg 50%
    16:00 +15°C° 0 mm 6 mps 732 mmHg 51%
    17:00 +13°C° 0 mm 6 mps 732 mmHg 55%
    18:00 +12°C° 0 mm 5 mps 732 mmHg 58%
    19:00 +9°C° 0 mm 5 mps 731 mmHg 61%
    20:00 +8°C° 0 mm 5 mps 732 mmHg 63%
    21:00 +7°C° 0 mm 4 mps 732 mmHg 64%
    22:00 +7°C° 0 mm 4 mps 733 mmHg 66%
    23:00 +6°C° 0 mm 4 mps 733 mmHg 68%

    Tomorrow, 7 April, Tuesday

    Time Temperature Precipitation Wind Pressure Humidity
    00:00 +7°C° 0 mm 3 mps 733 mmHg 69%
    01:00 +5°C° 0 mm 3 mps 733 mmHg 71%
    02:00 +5°C° 0 mm 3 mps 733 mmHg 71%
    03:00 +4°C° 0 mm 3 mps 733 mmHg 72%
    04:00 +5°C° 0 mm 2 mps 733 mmHg 72%
    05:00 +5°C° 0 mm 2 mps 734 mmHg 69%
    06:00 +6°C° 0 mm 2 mps 734 mmHg 67%
    07:00 +7°C° 0 mm 2 mps 734 mmHg 65%
    08:00 +8°C° 0 mm 2 mps 735 mmHg 59%
    09:00 +10°C° 0 mm 2 mps 735 mmHg 54%
    10:00 +12°C° 0 mm 3 mps 735 mmHg 49%
    11:00 +14°C° 0 mm 2 mps 735 mmHg 48%
    12:00 +16°C° 0 mm 2 mps 735 mmHg 46%
    13:00 +17°C° 0 mm 2 mps 735 mmHg 45%
    14:00 +17°C° 0 mm 2 mps 735 mmHg 46%
    15:00 +17°C° 0 mm 2 mps 735 mmHg 46%
    16:00 +18°C° 0 mm 1 mps 735 mmHg 47%
    17:00 +15°C° 0 mm 1 mps 735 mmHg 54%
    18:00 +13°C° 0 mm 1 mps 734 mmHg 60%
    19:00 +11°C° 0 mm 1 mps 734 mmHg 67%
    20:00 +9°C° 0 mm 2 mps 734 mmHg 66%
    21:00 +8°C° 0 mm 2 mps 735 mmHg 66%
    22:00 +8°C° 0 mm 2 mps 735 mmHg 65%
    23:00 +7°C° 0 mm 2 mps 735 mmHg 63%

    Day after tomorrow, 8 April, Wednesday

    Time Temperature Precipitation Wind Pressure Humidity
    00:00 +6°C° 0 mm 2 mps 734 mmHg 62%
    01:00 +6°C° 0 mm 2 mps 734 mmHg 60%
    02:00 +6°C° 0 mm 2 mps 734 mmHg 62%
    03:00 +5°C° 0 mm 2 mps 734 mmHg 63%
    04:00 +5°C° 0 mm 2 mps 734 mmHg 64%
    05:00 +6°C° 0 mm 2 mps 734 mmHg 63%
    06:00 +6°C° 0 mm 2 mps 734 mmHg 61%
    07:00 +7°C° 0 mm 2 mps 734 mmHg 59%
    08:00 +9°C° 0 mm 2 mps 733 mmHg 53%
    09:00 +11°C° 0 mm 3 mps 733 mmHg 46%
    10:00 +12°C° 0 mm 3 mps 733 mmHg 40%
    11:00 +13°C° 0 mm 3 mps 733 mmHg 38%
    12:00 +16°C° 0 mm 3 mps 732 mmHg 37%
    13:00 +17°C° 0 mm 3 mps 732 mmHg 36%
    14:00 +17°C° 0 mm 3 mps 732 mmHg 37%
    15:00 +17°C° 0 mm 4 mps 731 mmHg 38%
    16:00 +17°C° 0 mm 4 mps 731 mmHg 39%
    17:00 +14°C° 0 mm 3 mps 730 mmHg 47%
    18:00 +12°C° 0 mm 3 mps 730 mmHg 54%
    19:00 +10°C° 0 mm 2 mps 729 mmHg 62%
    20:00 +9°C° 0 mm 2 mps 729 mmHg 64%
    21:00 +8°C° 0 mm 2 mps 729 mmHg 65%
    22:00 +7°C° 0 mm 2 mps 729 mmHg 67%
    23:00 +7°C° 0 mm 2 mps 729 mmHg 68%

    9 April, Thursday

    Time Temperature Precipitation Wind Pressure Humidity
    00:00 +6°C° 0 mm 2 mps 729 mmHg 70%
    01:00 +6°C° 0 mm 2 mps 728 mmHg 71%
    02:00 +6°C° 0 mm 2 mps 728 mmHg 72%
    03:00 +6°C° 0 mm 1 mps 728 mmHg 73%
    04:00 +6°C° 0 mm 1 mps 728 mmHg 74%
    05:00 +7°C° 0 mm 1 mps 728 mmHg 72%
    06:00 +8°C° 0 mm 1 mps 728 mmHg 70%
    07:00 +8°C° 0 mm 1 mps 728 mmHg 68%
    08:00 +11°C° 0 mm 1 mps 728 mmHg 62%
    09:00 +13°C° 0 mm 2 mps 728 mmHg 56%
    10:00 +15°C° 0 mm 2 mps 728 mmHg 50%
    11:00 +16°C° 0 mm 2 mps 728 mmHg 49%
    12:00 +17°C° 0 mm 2 mps 728 mmHg 47%
    13:00 +18°C° 0 mm 3 mps 728 mmHg 46%
    14:00 +17°C° 0.1 mm 3 mps 728 mmHg 49%
    15:00 +17°C° 0.1 mm 3 mps 728 mmHg 53%
    16:00 +16°C° 0.1 mm 3 mps 728 mmHg 56%
    17:00 +14°C° 0.1 mm 3 mps 728 mmHg 66%
    18:00 +13°C° 0.1 mm 2 mps 728 mmHg 77%
    19:00 +10°C° 0.1 mm 2 mps 728 mmHg 87%
    20:00 +9°C° 0 mm 2 mps 728 mmHg 87%
    21:00 +8°C° 0 mm 2 mps 729 mmHg 88%
    22:00 +8°C° 0 mm 2 mps 729 mmHg 89%
    23:00 +7°C° 0 mm 2 mps 729 mmHg 90%

    10 April, Friday

    Time Temperature Precipitation Wind Pressure Humidity
    00:00 +7°C° 0 mm 2 mps 730 mmHg 91%
    01:00 +6°C° 0 mm 2 mps 730 mmHg 93%
    02:00 +7°C° 0 mm 1 mps 730 mmHg 92%
    03:00 +6°C° 0 mm 1 mps 730 mmHg 91%
    04:00 +5°C° 0 mm 1 mps 730 mmHg 91%
    05:00 +6°C° 0 mm 1 mps 730 mmHg 85%
    06:00 +6°C° 0 mm 1 mps 731 mmHg 79%
    07:00 +6°C° 0 mm 1 mps 731 mmHg 73%
    08:00 +8°C° 0 mm 1 mps 731 mmHg 63%
    09:00 +10°C° 0 mm 1 mps 732 mmHg 52%
    10:00 +10°C° 0 mm 2 mps 732 mmHg 41%
    11:00 +12°C° 0 mm 2 mps 732 mmHg 38%
    12:00 +13°C° 0 mm 1 mps 732 mmHg 35%
    13:00 +14°C° 0 mm 1 mps 731 mmHg 31%
    14:00 +14°C° 0 mm 1 mps 731 mmHg 32%
    15:00 +14°C° 0 mm 1 mps 730 mmHg 33%
    16:00 +14°C° 0 mm 1 mps 730 mmHg 34%
    17:00 +12°C° 0 mm 1 mps 730 mmHg 40%
    18:00 +10°C° 0 mm 1 mps 729 mmHg 46%
    19:00 +8°C° 0 mm 1 mps 729 mmHg 52%
    20:00 +8°C° 0 mm 1 mps 729 mmHg 54%
    21:00 +7°C° 0 mm 1 mps 729 mmHg 55%
    22:00 +7°C° 0 mm 1 mps 729 mmHg 57%
    23:00 +6°C° 0 mm 1 mps 729 mmHg 57%

    11 April, Saturday

    Time Temperature Precipitation Wind Pressure Humidity
    00:00 +6°C° 0 mm 1 mps 729 mmHg 58%
    01:00 +6°C° 0 mm 1 mps 729 mmHg 59%
    02:00 +6°C° 0 mm 1 mps 728 mmHg 60%
    03:00 +6°C° 0 mm 1 mps 728 mmHg 61%
    04:00 +5°C° 0 mm 1 mps 728 mmHg 62%
    05:00 +5°C° 0 mm 2 mps 728 mmHg 62%
    06:00 +6°C° 0 mm 2 mps 728 mmHg 61%
    07:00 +7°C° 0 mm 2 mps 728 mmHg 60%
    08:00 +9°C° 0 mm 2 mps 727 mmHg 58%
    09:00 +12°C° 0 mm 2 mps 727 mmHg 57%
    10:00 +13°C° 0 mm 3 mps 727 mmHg 55%
    11:00 +14°C° 0 mm 3 mps 727 mmHg 53%
    12:00 +16°C° 0 mm 3 mps 726 mmHg 52%
    13:00 +18°C° 0 mm 3 mps 726 mmHg 50%
    14:00 +18°C° 0 mm 3 mps 725 mmHg 51%
    15:00 +18°C° 0 mm 3 mps 724 mmHg 52%
    16:00 +18°C° 0 mm 3 mps 724 mmHg 54%
    17:00 +17°C° 0 mm 3 mps 723 mmHg 58%
    18:00 +14°C° 0 mm 3 mps 723 mmHg 63%
    19:00 +13°C° 0 mm 3 mps 722 mmHg 68%
    20:00 +12°C° 0 mm 3 mps 722 mmHg 68%
    21:00 +12°C° 0 mm 3 mps 722 mmHg 69%
    22:00 +12°C° 0 mm 3 mps 721 mmHg 70%
    23:00 +11°C° 0.1 mm 3 mps 721 mmHg 76%
    Show more